Location: Graswijk
(52.9667°N, 6.5500°E)
Time: 04:20:02
(UTC+00:00)

Okean-O - Pass Details

Date: 15 May 2026
Orbit: 627 x 629 km, 97.9° (Epoch: 6 June)

Event Time Altitude Azimuth Distance (km) Brightness Sun altitude
Exits shadow 20:14:53 - 165° (SSE) 2,515 5.2 -6.6°
Reaches altitude 10° 20:16:07 10° 166° (SSE) 2,004 4.7 -6.7°
Maximum altitude 20:20:30 85° 254° (WSW) 639 2.7 -7.2°
Drops below altitude 10° 20:24:54 10° 345° (NNW) 2,019 6.3 -7.6°
Sets 20:27:07 0° 346° (NNW) 2,931 7.2 -7.9°
